This is the latest recevied weather packets stored in our database for station/object DL9CN-10. If no packets are shown the sender has not sent any weather packets the latest 1 day(s).
| Time | Temp. | Humidity | Pressure | Rain* | Wind** | Luminosity | Snow |
|---|---|---|---|---|---|---|---|
| 1777736269 | 28.33° C | 38% | 1017.5 hPa | - | - | - | - |
| 1777735369 | 27.78° C | 39% | 1017.6 hPa | - | - | - | - |
| 1777734469 | 27.78° C | 39% | 1017.8 hPa | - | - | - | - |
| 1777733569 | 27.78° C | 39% | 1018 hPa | - | - | - | - |
| 1777732669 | 27.22° C | 39% | 1018.3 hPa | - | - | - | - |
| 1777731768 | 26.67° C | 39% | 1018.6 hPa | - | - | - | - |
| 1777730868 | 26.67° C | 40% | 1018.8 hPa | - | - | - | - |
| 1777729968 | 26.11° C | 40% | 1019 hPa | - | - | - | - |
| 1777729068 | 26.11° C | 40% | 1019.3 hPa | - | - | - | - |
| 1777728168 | 25.56° C | 40% | 1019.6 hPa | - | - | - | - |
| 1777727268 | 25° C | 40% | 1019.7 hPa | - | - | - | - |
| 1777726368 | 24.44° C | 40% | 1019.9 hPa | - | - | - | - |
| 1777725468 | 24.44° C | 40% | 1020.1 hPa | - | - | - | - |
| 1777724567 | 23.89° C | 41% | 1020.2 hPa | - | - | - | - |
| 1777723667 | 23.33° C | 41% | 1020.5 hPa | - | - | - | - |
| 1777722767 | 22.78° C | 41% | 1020.7 hPa | - | - | - | - |
| 1777721867 | 22.78° C | 41% | 1020.9 hPa | - | - | - | - |
| 1777720967 | 22.22° C | 41% | 1021.3 hPa | - | - | - | - |
| 1777720067 | 21.67° C | 41% | 1021.4 hPa | - | - | - | - |
| 1777718266 | 20.56° C | 41% | 1021.9 hPa | - | - | - | - |
| 1777717371 | 20.56° C | 41% | 1022.1 hPa | - | - | - | - |
| 1777716470 | 20° C | 41% | 1022.3 hPa | - | - | - | - |
| 1777715569 | 19.44° C | 41% | 1022.5 hPa | - | - | - | - |
| 1777714669 | 18.89° C | 41% | 1022.6 hPa | - | - | - | - |
| 1777713769 | 18.89° C | 41% | 1023 hPa | - | - | - | - |
* Rain since midnight (hover to see other rain measurements)
** Current wind speed in m/s (hover to see current wind gust speed)